Regional Weather Roundup
Issued by NWS

Home | Current Version | Previous Version | Text Only | Print | Product List | Glossary On
Versions: 1 2 3 4 5 6 7 8 9 10 11 12 13 14 15 16 17 18 19 20 21 22 23 24 25 26 27 28 29 30 31 32 33 34 35 36 37 38 39 40 41 42 43 44 45 46 47 48 49 50
000
ASUS45 KABQ 210710
RWRNM
NEW MEXICO REGIONAL WEATHER ROUNDUP
NATIONAL WEATHER SERVICE ALBUQUERQUE NM
100 AM MDT THU SEP 21 2017

NOTE: "FAIR" MEANS FEW OR NO CLOUDS BELOW 12,000 FEET AGL WITH NO
       SIGNIFICANT WEATHER OR OBSTRUCTIONS TO VISION.

      THIS PRODUCT IS RELEASED AS TWO VERSIONS.  ONE VERSION NEAR
      THE TOP OF THE HOUR CONTAINING PRELIMINARY DATA FROM ALBUQUERQUE
      AND OTHER STATIONS.  A FINAL VERSION WITH ADDITIONAL DATA IS
      ISSUED ABOUT 10 MINUTES AFTER THE HOUR.

NMZ501-503-504-510>518-210800-
NORTHWEST PLATEAU/NORTHCENTRAL MOUNTAINS

CITY           SKY/WX    TMP DP  RH WIND       PRES   REMARKS
FARMINGTON     FAIR      64  30  27 E8        29.97S
LOS ALAMOS     FAIR      65  22  19 SW8       30.13S
SANTA FE       FAIR      59  26  28 CALM      30.07R
TAOS           FAIR      44  22  41 N5        30.14S
ANGEL FIRE     FAIR      33  25  73 CALM      30.20F

$$
NMZ402-403-502-505>509-210800-
WESTCENTRAL MOUNTAINS/SOUTHWEST MOUNTAINS

CITY           SKY/WX    TMP DP  RH WIND       PRES   REMARKS
GALLUP         FAIR      60  31  33 S10       30.08S
GRANTS         FAIR      60  34  37 SW3       30.12S
SILVER CITY    FAIR      59  41  51 NW8       30.07F

$$
NMZ407-409-411-412-210800-
SOUTHERN DESERTS

CITY           SKY/WX    TMP DP  RH WIND       PRES   REMARKS
DEMING         FAIR      64  44  48 CALM      30.00S
LAS CRUCES     FAIR      67  41  38 W9        30.01S
HOLLOMAN AFB   CLEAR     71  40  32 SE8       30.00S
ALAMOGORDO     FAIR      66  39  37 S7        29.98S
T OR C         FAIR      69  36  29 NW7       29.99F

$$
NMZ519>523-210800-
CENTRAL VALLEYS/CENTRAL HIGHLANDS

CITY           SKY/WX    TMP DP  RH WIND       PRES   REMARKS
ALBUQUERQUE    FAIR      65  32  29 SE9       30.03R
DOUBLE EAGLE   FAIR      61  28  28 SW9       30.05S
MORIARTY ARPT  FAIR      59  36  42 SE8       30.08S
CLINES CORNERS FAIR      60  35  39 SW17      30.12F
BELEN          FAIR      64  31  28 W8        30.02S
SOCORRO        FAIR      60  32  35 NW6       29.99S

$$
NMZ524>526-539-540-210800-
SOUTHCENTRAL MOUNTAINS

CITY           SKY/WX    TMP DP  RH WIND       PRES   REMARKS
RUIDOSO        FAIR      63  39  42 SW12      30.16S

$$
NMZ527>531-210800-
NORTHEAST HIGHLANDS/NORTHEAST PLAINS

CITY           SKY/WX    TMP DP  RH WIND       PRES   REMARKS
LAS VEGAS      FAIR      53  28  38 SW10      30.10F
RATON          FAIR      49  36  61 NW7       30.05F
CLAYTON        FAIR      56  40  55 W8        29.98S

$$
NMZ532>537-210800-
EASTCENTRAL PLAINS

CITY           SKY/WX    TMP DP  RH WIND       PRES   REMARKS
SANTA ROSA     FAIR      64  34  32 CALM      29.97S
TUCUMCARI      FAIR      64  43  46 S8        29.91F
CANNON AFB     CLEAR     60  48  64 E8        29.97F
CLOVIS AIRPORT NOT AVBL

$$
NMZ028-029-538-210800-
SOUTHEAST PLAINS

CITY           SKY/WX    TMP DP  RH WIND       PRES   REMARKS
ROSWELL        FAIR      71  39  31 E7        29.91S
ARTESIA        FAIR      70  39  32 SW9       29.92F
CARLSBAD       FAIR      71  44  37 VRB6      29.90S
HOBBS          FAIR      66  52  59 SW9       29.95F


$$



USA.gov is the U.S. government's official web portal to all federal, state and local government web resources and services.